sat.trackr.live / text

‹ back to catalog

STARLINK-34040

NORAD 63839 · 2025-093D

PAYLOAD ACTIVE UNKNOWN

§ Identity

Operator
Country
US
Launch date
2025-05-07
Launch site
AFETR
Launch vehicle
Mass (kg)
RCS (m²)

Purposes: comms

External: N2YO · Heavens-Above · Gunter

§ Orbital elements

Epoch: 2026-05-24T23:59:09.233088Z

Period
94.27 min
Inclination
43.0042°
Eccentricity
0.0001280
Mean motion
15.27589668 rev/d
Perigee alt
482.1 km
Apogee alt
483.9 km
Semi-major
6,861.2 km
B*
5.8261e-4
RAAN
6.8733°
Arg perigee
260.0579°
Mean anomaly
100.0128°
Rev number
5,964

§ Raw data

STARLINK-340401 63839U 25093D   26144.99941242  .00015809  00000+0  58261-3 0  99922 63839  43.0042   6.8733 0001280 260.0579 100.0128 15.27589668 59644

JSON: /api/v1/satellites/63839 · /tle

For live sub-satellite position, see the globe view (requires WebGL).

§ Visibility from observer

Set your observer location to see the next 7 days of passes ≥ 10°. The values pass through the URL so the page stays shareable.

No JS? Fill the form by hand. The geolocation button needs JavaScript.